Tracking 18840 objects as of 18-November-2017
HD Live streaming from Space Station
objects crossing your sky now

COSMOS 1700

Track COSMOS 1700 now!
COSMOS 1700 is classified as:


NORAD ID: 16199
Int'l Code: 1985-102A
Perigee: 35,761.5 km
Apogee: 35,800.7 km
Inclination: 14.3 °
Period: 1,435.5 minutes
Semi major axis: 42152 km
RCS: 3.1622 m2 (large)
Launch date: October 25, 1985
Source: Commonwealth of Independent States (former USSR) (CIS)
Launch site: TYURATAM MISSILE AND SPACE COMPLEX (TTMTR)
aabbcc
Your satellite tracking list
Your tracking list is empty




NASA's NSSDC Master Catalog

Two Line Element Set (TLE):
1 16199U 85102A   17320.62473601 -.00000155  00000-0  00000+0 0  9995
2 16199  14.2892 345.8777 0004649 205.0889 167.8686  1.00316923120235
Source of the keplerian elements: AFSPC